| time (UTC) | temp C | wind direction | speed KPH | gust KPH | rain 1hr cm | rain 24hr cm | rain mn cm | humidity % | barometer mb |
| 20260505140310 | 13 | 159 | 0.0 | 1.6 | 0.00 | 0.20 | 0.20 | 85 | 1006.5 |
| 20260505130234 | 13 | 137 | 1.6 | 3.2 | 0.00 | 0.20 | 0.20 | 88 | 1005.9 |
| 20260505124724 | 13 | 100 | 1.6 | 4.8 | 0.00 | 0.20 | 0.20 | 88 | 1006.0 |
| 20260505124221 | 13 | 181 | 0.0 | 4.8 | 0.00 | 0.20 | 0.20 | 90 | 1006.0 |
| 20260505123716 | 13 | 82 | 1.6 | 3.2 | 0.00 | 0.20 | 0.20 | 89 | 1005.7 |
| 20260505123214 | 13 | 99 | 1.6 | 4.8 | 0.00 | 0.20 | 0.20 | 89 | 1005.9 |
| 20260505122710 | 13 | 179 | 0.0 | 0.0 | 0.00 | 0.20 | 0.20 | 90 | 1005.7 |
| 20260505122208 | 13 | 211 | 3.2 | 3.2 | 0.00 | 0.20 | 0.20 | 90 | 1005.5 |
| 20260505121704 | 13 | 93 | 3.2 | 4.8 | 0.00 | 0.20 | 0.20 | 91 | 1005.2 |
| 20260505121200 | 14 | 185 | 0.0 | 1.6 | 0.00 | 0.20 | 0.20 | 92 | 1005.3 |
| 20260505120657 | 14 | 154 | 0.0 | 0.0 | 0.00 | 0.20 | 0.20 | 93 | 1005.6 |
| 20260505120153 | 14 | 154 | 0.0 | 4.8 | 0.00 | 0.20 | 0.20 | 93 | 1005.5 |
| 20260505115646 | 14 | 131 | 0.0 | 1.6 | 0.00 | 0.20 | 0.20 | 93 | 1005.3 |
| 20260505115145 | 14 | 108 | 0.0 | 0.0 | 0.00 | 0.20 | 0.20 | 93 | 1005.2 |
| 20260505114642 | 14 | 181 | 0.0 | 0.0 | 0.00 | 0.20 | 0.20 | 93 | 1005.2 |
| 20260505114138 | 14 | 168 | 1.6 | 4.8 | 0.00 | 0.20 | 0.20 | 92 | 1005.3 |
| 20260505113634 | 14 | 170 | 0.0 | 0.0 | 0.00 | 0.20 | 0.20 | 92 | 1005.2 |
| 20260505113131 | 15 | 98 | 1.6 | 4.8 | 0.00 | 0.20 | 0.20 | 91 | 1004.8 |
| 20260505112627 | 15 | 63 | 3.2 | 4.8 | 0.00 | 0.20 | 0.20 | 92 | 1004.9 |
| 20260505112126 | 15 | 124 | 1.6 | 4.8 | 0.18 | 0.20 | 0.20 | 92 | 1005.1 |
| 20260505111620 | 15 | 198 | 3.2 | 3.2 | 0.18 | 0.20 | 0.20 | 91 | 1003.9 |
| 20260505111116 | 15 | 166 | 1.6 | 3.2 | 0.00 | 0.18 | 0.18 | 92 | 1004.9 |
| 20260505110612 | 15 | 93 | 0.0 | 4.8 | 0.00 | 0.18 | 0.18 | 93 | 1005.5 |
| 20260505110110 | 15 | 93 | 0.0 | 1.6 | 0.00 | 0.18 | 0.18 | 94 | 1005.5 |
| 20260505102045 | 15 | 189 | 0.0 | 0.0 | 0.00 | 0.18 | 0.18 | 93 | 1005.0 |
| 20260505101544 | 15 | 153 | 0.0 | 0.0 | 0.00 | 0.18 | 0.18 | 92 | 1004.9 |
| 20260505101039 | 15 | 129 | 1.6 | 1.6 | 0.00 | 0.18 | 0.18 | 93 | 1004.4 |
| 20260505100536 | 15 | 56 | 3.2 | 3.2 | 0.00 | 0.18 | 0.18 | 95 | 1004.9 |
| 20260505100033 | 15 | 151 | 0.0 | 0.0 | 0.00 | 0.18 | 0.18 | 94 | 1004.2 |
| 20260505095529 | 15 | 143 | 0.0 | 0.0 | 0.13 | 0.18 | 0.18 | 94 | 1004.0 |
| 20260505095026 | 15 | 185 | 0.0 | 0.0 | 0.13 | 0.18 | 0.18 | 93 | 1003.9 |
| 20260505094522 | 15 | 186 | 0.0 | 0.0 | 0.00 | 0.15 | 0.15 | 93 | 1003.9 |
| 20260505094019 | 15 | 164 | 0.0 | 0.0 | 0.00 | 0.15 | 0.15 | 92 | 1004.0 |
| 20260505093515 | 15 | 164 | 0.0 | 0.0 | 0.00 | 0.15 | 0.15 | 90 | 1003.9 |
| 20260505093013 | 15 | 162 | 0.0 | 0.0 | 0.00 | 0.15 | 0.15 | 90 | 1004.0 |
| 20260505092510 | 15 | 179 | 0.0 | 0.0 | 0.00 | 0.15 | 0.15 | 89 | 1003.8 |
| 20260505092008 | 15 | 179 | 0.0 | 0.0 | 0.00 | 0.15 | 0.15 | 90 | 1003.7 |
| 20260505091505 | 15 | 183 | 0.0 | 1.6 | 0.00 | 0.15 | 0.15 | 91 | 1003.3 |
| 20260505091003 | 15 | 172 | 1.6 | 11.3 | 0.00 | 0.15 | 0.15 | 92 | 1002.2 |
| 20260505090501 | 15 | 167 | 1.6 | 11.3 | 0.00 | 0.15 | 0.15 | 94 | 1002.1 |
| 20260505085958 | 15 | 110 | 6.4 | 6.4 | 0.00 | 0.15 | 0.15 | 95 | 1002.3 |
| 20260505085456 | 15 | 162 | 6.4 | 11.3 | 0.18 | 0.15 | 0.15 | 95 | 1002.8 |
| 20260505084954 | 15 | 202 | 3.2 | 11.3 | 0.18 | 0.15 | 0.15 | 95 | 1003.5 |
| 20260505084452 | 16 | 171 | 0.0 | 0.0 | 0.13 | 0.13 | 0.13 | 95 | 1004.0 |
| 20260505083949 | 16 | 168 | 0.0 | 0.0 | 0.18 | 0.10 | 0.10 | 95 | 1004.7 |
| 20260505083446 | 16 | 175 | 0.0 | 0.0 | 0.30 | 0.10 | 0.10 | 95 | 1004.9 |
| 20260505082942 | 16 | 195 | 0.0 | 0.0 | 0.13 | 0.08 | 0.08 | 94 | 1005.1 |
| 20260505082438 | 16 | 165 | 0.0 | 0.0 | 0.00 | 0.05 | 0.05 | 94 | 1005.0 |
| 20260505081936 | 16 | 110 | 0.0 | 0.0 | 0.00 | 0.05 | 0.05 | 93 | 1004.7 |
| 20260505081433 | 16 | 114 | 0.0 | 0.0 | 0.00 | 0.05 | 0.05 | 92 | 1004.7 |
| 20260505080929 | 16 | 134 | 0.0 | 0.0 | 0.18 | 0.05 | 0.05 | 91 | 1004.7 |
| 20260505080425 | 16 | 85 | 0.0 | 0.0 | 0.13 | 0.03 | 0.03 | 90 | 1004.6 |
| 20260505075921 | 17 | 171 | 0.0 | 0.0 | 0.13 | 0.03 | 0.03 | 87 | 1004.7 |
| 20260505075418 | 17 | 186 | 0.0 | 0.0 | 0.00 | 0.00 | 0.00 | 85 | 1004.3 |
| 20260505074915 | 17 | 165 | 0.0 | 0.0 | 0.00 | 0.00 | 0.00 | 84 | 1004.4 |
| 20260505074412 | 17 | 183 | 0.0 | 3.2 | 0.00 | 0.00 | 0.00 | 81 | 1004.7 |
| 20260505073909 | 18 | 174 | 0.0 | 3.2 | 0.00 | 0.00 | 0.00 | 79 | 1004.7 |
| 20260505073407 | 18 | 192 | 0.0 | 3.2 | 0.00 | 0.00 | 0.00 | 77 | 1004.7 |
| 20260505072904 | 18 | 203 | 0.0 | 0.0 | 0.00 | 0.00 | 0.00 | 77 | 1004.5 |
| 20260505072400 | 17 | 188 | 0.0 | 0.0 | 0.00 | 0.00 | 0.00 | 77 | 1004.3 |
| 20260505071856 | 18 | 168 | 0.0 | 0.0 | 0.00 | 0.00 | 0.00 | 76 | 1004.4 |
| 20260505071352 | 18 | 173 | 0.0 | 0.0 | 0.00 | 0.00 | 0.00 | 76 | 1004.3 |
| 20260505070851 | 18 | 84 | 1.6 | 6.4 | 0.00 | 0.00 | 0.00 | 75 | 1004.4 |
| 20260505070347 | 17 | 136 | 0.0 | 0.0 | 0.00 | 0.00 | 0.00 | 76 | 1004.5 |
| 20260505065842 | 17 | 178 | 0.0 | 0.0 | 0.00 | 0.00 | 0.00 | 76 | 1004.4 |
| 20260505065340 | 17 | 171 | 0.0 | 0.0 | 0.00 | 0.00 | 0.00 | 76 | 1004.1 |
| 20260505064837 | 17 | 164 | 0.0 | 0.0 | 0.00 | 0.00 | 0.00 | 76 | 1004.4 |
| 20260505064333 | 17 | 171 | 0.0 | 3.2 | 0.00 | 0.00 | 0.00 | 76 | 1004.3 |
| 20260505063832 | 17 | 157 | 0.0 | 0.0 | 0.00 | 0.00 | 0.00 | 76 | 1004.8 |
| 20260505063327 | 17 | 148 | 0.0 | 1.6 | 0.00 | 0.00 | 0.00 | 75 | 1004.8 |
| 20260505062824 | 17 | 169 | 0.0 | 0.0 | 0.00 | 0.00 | 0.00 | 75 | 1005.1 |
| 20260505062322 | 17 | 172 | 0.0 | 3.2 | 0.00 | 0.00 | 0.00 | 75 | 1004.7 |
| 20260505061818 | 17 | 191 | 0.0 | 0.0 | 0.00 | 0.00 | 0.00 | 76 | 1004.9 |
| 20260505061317 | 17 | 177 | 0.0 | 0.0 | 0.00 | 0.00 | 0.00 | 76 | 1005.1 |
| 20260505060814 | 17 | 156 | 0.0 | 0.0 | 0.00 | 0.00 | 0.00 | 76 | 1005.1 |
| 20260505060310 | 17 | 169 | 0.0 | 0.0 | 0.00 | 0.00 | 0.00 | 76 | 1005.1 |
| 20260505055806 | 17 | 165 | 0.0 | 0.0 | 0.00 | 0.00 | 0.00 | 76 | 1004.9 |
| 20260505055303 | 17 | 172 | 0.0 | 0.0 | 0.00 | 0.00 | 0.00 | 76 | 1004.8 |
| 20260505054800 | 17 | 206 | 0.0 | 0.0 | 0.00 | 0.00 | 0.00 | 76 | 1005.0 |
| 20260505054257 | 17 | 186 | 0.0 | 0.0 | 0.00 | 0.00 | 0.00 | 76 | 1004.9 |
| 20260505053755 | 17 | 176 | 0.0 | 0.0 | 0.00 | 0.00 | 0.00 | 76 | 1004.8 |
| 20260505053252 | 17 | 176 | 0.0 | 0.0 | 0.00 | 0.00 | 0.00 | 75 | 1004.9 |
| 20260505052749 | 18 | 165 | 0.0 | 0.0 | 0.00 | 0.00 | 0.00 | 75 | 1004.8 |
| 20260505052246 | 17 | 163 | 0.0 | 3.2 | 0.00 | 0.00 | 0.00 | 75 | 1004.7 |
| 20260505051743 | 18 | 170 | 0.0 | 1.6 | 0.00 | 0.00 | 0.00 | 74 | 1004.8 |
| 20260505051241 | 17 | 184 | 0.0 | 6.4 | 0.00 | 0.00 | 0.00 | 75 | 1004.9 |
| 20260505050738 | 18 | 150 | 0.0 | 4.8 | 0.00 | 0.00 | 0.00 | 74 | 1004.9 |
| 20260505050237 | 17 | 150 | 0.0 | 0.0 | 0.00 | 0.00 | 0.00 | 75 | 1004.8 |
| 20260505041700 | 18 | 161 | 0.0 | 0.0 | 0.00 | 0.00 | 0.00 | 74 | 1005.6 |
| 20260505041158 | 18 | 170 | 0.0 | 0.0 | 0.00 | 0.00 | 0.00 | 73 | 1005.7 |
| 20260505040654 | 18 | 171 | 0.0 | 0.0 | 0.00 | 0.00 | 0.00 | 72 | 1005.8 |
| 20260505040151 | 18 | 170 | 0.0 | 0.0 | 0.00 | 0.00 | 0.00 | 71 | 1005.8 |
| 20260505035648 | 18 | 172 | 0.0 | 0.0 | 0.00 | 0.00 | 0.00 | 71 | 1006.1 |
| 20260505035144 | 18 | 177 | 0.0 | 0.0 | 0.00 | 0.00 | 0.00 | 70 | 1006.1 |
| 20260505034640 | 19 | 171 | 0.0 | 0.0 | 0.00 | 0.00 | 0.00 | 70 | 1006.1 |
| 20260505034133 | 19 | 178 | 0.0 | 0.0 | 0.00 | 0.00 | 0.00 | 69 | 1006.1 |
| 20260505033628 | 19 | 176 | 0.0 | 0.0 | 0.00 | 0.00 | 0.00 | 68 | 1005.9 |
| 20260505033127 | 20 | 176 | 0.0 | 0.0 | 0.00 | 0.00 | 0.00 | 68 | 1006.0 |
| 20260505032625 | 20 | 177 | 0.0 | 0.0 | 0.00 | 0.00 | 0.00 | 68 | 1006.1 |
| 20260505032121 | 20 | 184 | 0.0 | 0.0 | 0.00 | 0.00 | 0.00 | 67 | 1006.0 |
| 20260505031619 | 20 | 158 | 0.0 | 0.0 | 0.00 | 0.00 | 0.00 | 67 | 1006.1 |
| 20260505031114 | 20 | 170 | 0.0 | 0.0 | 0.00 | 0.00 | 0.00 | 66 | 1006.0 |
| 20260505030611 | 20 | 178 | 0.0 | 0.0 | 0.00 | 0.00 | 0.00 | 66 | 1006.1 |
| 20260505030106 | 20 | 188 | 0.0 | 0.0 | 0.00 | 0.00 | 0.00 | 65 | 1006.2 |
| 20260505025602 | 20 | 189 | 0.0 | 4.8 | 0.00 | 0.00 | 0.00 | 65 | 1006.2 |
| 20260505025057 | 20 | 181 | 0.0 | 0.0 | 0.00 | 0.00 | 0.00 | 65 | 1006.0 |
| 20260505024553 | 20 | 156 | 0.0 | 0.0 | 0.00 | 0.00 | 0.00 | 65 | 1005.9 |
| 20260505024051 | 21 | 169 | 0.0 | 0.0 | 0.00 | 0.00 | 0.00 | 64 | 1005.9 |
| 20260505023548 | 21 | 187 | 0.0 | 3.2 | 0.00 | 0.00 | 0.00 | 63 | 1005.8 |
| 20260505023045 | 21 | 176 | 0.0 | 0.0 | 0.00 | 0.00 | 0.00 | 64 | 1005.7 |
| 20260505022543 | 21 | 150 | 0.0 | 0.0 | 0.00 | 0.00 | 0.00 | 63 | 1005.6 |
| 20260505022039 | 21 | 179 | 0.0 | 1.6 | 0.00 | 0.00 | 0.00 | 64 | 1005.6 |
| 20260505021535 | 21 | 190 | 0.0 | 0.0 | 0.00 | 0.00 | 0.00 | 64 | 1005.6 |
| 20260505021032 | 21 | 179 | 0.0 | 0.0 | 0.00 | 0.00 | 0.00 | 63 | 1005.2 |
| 20260505020527 | 21 | 160 | 0.0 | 0.0 | 0.00 | 0.00 | 0.00 | 63 | 1005.3 |
| 20260505020024 | 21 | 169 | 0.0 | 1.6 | 0.00 | 0.00 | 0.00 | 63 | 1005.2 |
| 20260505015521 | 21 | 170 | 0.0 | 1.6 | 0.00 | 0.00 | 0.00 | 62 | 1005.2 |
| 20260505015018 | 21 | 168 | 0.0 | 0.0 | 0.00 | 0.00 | 0.00 | 62 | 1005.5 |
| 20260505014515 | 21 | 159 | 0.0 | 1.6 | 0.00 | 0.00 | 0.00 | 61 | 1005.2 |
| 20260505014012 | 21 | 183 | 0.0 | 0.0 | 0.00 | 0.00 | 0.00 | 61 | 1004.9 |
| 20260505013509 | 21 | 163 | 0.0 | 1.6 | 0.00 | 0.00 | 0.00 | 61 | 1004.8 |
| 20260505013006 | 21 | 163 | 0.0 | 0.0 | 0.00 | 0.00 | 0.00 | 61 | 1004.8 |
| 20260505012505 | 21 | 165 | 0.0 | 0.0 | 0.00 | 0.00 | 0.00 | 61 | 1004.8 |
| 20260505012001 | 21 | 188 | 0.0 | 0.0 | 0.00 | 0.00 | 0.00 | 60 | 1004.7 |
| 20260505011457 | 21 | 176 | 0.0 | 0.0 | 0.00 | 0.00 | 0.00 | 60 | 1004.6 |
| 20260505010954 | 21 | 161 | 0.0 | 0.0 | 0.00 | 0.00 | 0.00 | 60 | 1004.6 |
| 20260505010449 | 22 | 173 | 0.0 | 0.0 | 0.00 | 0.00 | 0.00 | 59 | 1004.7 |
| 20260505005946 | 22 | 181 | 0.0 | 0.0 | 0.00 | 0.00 | 0.00 | 57 | 1004.4 |
| 20260505005443 | 22 | 1 | 0.0 | 0.0 | 0.00 | 0.00 | 0.00 | 57 | 1004.5 |
| 20260505004941 | 22 | 346 | 0.0 | 0.0 | 0.00 | 0.00 | 0.00 | 56 | 1004.5 |
| 20260505004437 | 22 | 353 | 0.0 | 0.0 | 0.00 | 0.00 | 0.00 | 55 | 1004.6 |
| 20260505003934 | 23 | 343 | 0.0 | 0.0 | 0.00 | 0.00 | 0.00 | 54 | 1004.4 |
| 20260505003431 | 23 | 344 | 0.0 | 0.0 | 0.00 | 0.00 | 0.00 | 54 | 1004.3 |
| 20260505002927 | 23 | 47 | 0.0 | 0.0 | 0.00 | 0.00 | 0.00 | 54 | 1004.5 |
| 20260505002423 | 23 | 232 | 0.0 | 1.6 | 0.00 | 0.00 | 0.00 | 54 | 1004.3 |
| 20260505001922 | 23 | 319 | 1.6 | 4.8 | 0.00 | 0.00 | 0.00 | 53 | 1004.1 |
| 20260505001419 | 23 | 355 | 0.0 | 4.8 | 0.00 | 0.00 | 0.00 | 53 | 1004.2 |
| 20260505000916 | 23 | 2 | 0.0 | 0.0 | 0.00 | 0.00 | 0.00 | 53 | 1004.3 |
| 20260505000414 | 23 | 339 | 0.0 | 0.0 | 0.00 | 0.00 | 0.00 | 53 | 1004.4 |
| 20260504235910 | 24 | 351 | 0.0 | 0.0 | 0.00 | 0.00 | 0.00 | 52 | 1004.3 |
| 20260504235408 | 24 | 350 | 0.0 | 0.0 | 0.00 | 0.00 | 0.00 | 52 | 1004.2 |
| 20260504234904 | 24 | 58 | 0.0 | 0.0 | 0.00 | 0.00 | 0.00 | 50 | 1004.0 |
| 20260504234401 | 24 | 339 | 0.0 | 0.0 | 0.00 | 0.00 | 0.00 | 49 | 1004.1 |
| 20260504233858 | 24 | 352 | 0.0 | 0.0 | 0.00 | 0.00 | 0.00 | 50 | 1004.1 |
| 20260504233354 | 24 | 50 | 0.0 | 3.2 | 0.00 | 0.00 | 0.00 | 49 | 1004.1 |
| 20260504232850 | 25 | 341 | 0.0 | 0.0 | 0.00 | 0.00 | 0.00 | 50 | 1004.0 |
| 20260504232347 | 25 | 133 | 3.2 | 4.8 | 0.00 | 0.00 | 0.00 | 49 | 1004.1 |
| 20260504231843 | 25 | 359 | 4.8 | 9.7 | 0.00 | 0.00 | 0.00 | 49 | 1004.1 |
| 20260504231340 | 25 | 164 | 3.2 | 14.5 | 0.00 | 0.00 | 0.00 | 49 | 1004.2 |
| 20260504230836 | 25 | 72 | 4.8 | 6.4 | 0.00 | 0.00 | 0.00 | 49 | 1004.3 |
| 20260504230335 | 25 | 347 | 1.6 | 3.2 | 0.00 | 0.00 | 0.00 | 49 | 1004.3 |
| 20260504225833 | 25 | 0 | 1.6 | 4.8 | 0.00 | 0.00 | 0.00 | 49 | 1004.2 |
| 20260504225329 | 25 | 93 | 3.2 | 4.8 | 0.00 | 0.00 | 0.00 | 49 | 1004.1 |
| 20260504224827 | 25 | 8 | 3.2 | 4.8 | 0.00 | 0.00 | 0.00 | 49 | 1004.0 |
| 20260504224323 | 25 | 337 | 3.2 | 4.8 | 0.00 | 0.00 | 0.00 | 48 | 1004.1 |
| 20260504223820 | 25 | 35 | 3.2 | 3.2 | 0.00 | 0.00 | 0.00 | 47 | 1004.2 |
| 20260504223315 | 26 | 295 | 4.8 | 6.4 | 0.00 | 0.00 | 0.00 | 47 | 1004.0 |
| 20260504222812 | 26 | 293 | 0.0 | 9.7 | 0.00 | 0.00 | 0.00 | 47 | 1004.1 |
| 20260504222309 | 26 | 336 | 1.6 | 6.4 | 0.00 | 0.00 | 0.00 | 48 | 1004.1 |
| 20260504221808 | 26 | 35 | 3.2 | 3.2 | 0.00 | 0.00 | 0.00 | 48 | 1003.9 |
| 20260504221304 | 26 | 61 | 4.8 | 9.7 | 0.00 | 0.00 | 0.00 | 46 | 1004.3 |
| 20260504220801 | 26 | 306 | 3.2 | 4.8 | 0.00 | 0.00 | 0.00 | 47 | 1004.1 |
| 20260504220258 | 26 | 142 | 1.6 | 9.7 | 0.00 | 0.00 | 0.00 | 47 | 1004.3 |
| 20260504215755 | 26 | 22 | 1.6 | 11.3 | 0.00 | 0.00 | 0.00 | 48 | 1004.3 |
| 20260504215251 | 26 | 41 | 3.2 | 12.9 | 0.00 | 0.00 | 0.00 | 47 | 1004.3 |
| 20260504214747 | 26 | 314 | 1.6 | 6.4 | 0.00 | 0.00 | 0.00 | 48 | 1004.4 |
| 20260504214244 | 27 | 304 | 9.7 | 12.9 | 0.00 | 0.00 | 0.00 | 45 | 1004.4 |
| 20260504213741 | 27 | 202 | 4.8 | 6.4 | 0.00 | 0.00 | 0.00 | 47 | 1004.6 |
| 20260504213237 | 27 | 92 | 4.8 | 6.4 | 0.00 | 0.00 | 0.00 | 47 | 1004.4 |
| 20260504212734 | 27 | 152 | 3.2 | 9.7 | 0.00 | 0.00 | 0.00 | 47 | 1004.5 |
| 20260504212231 | 27 | 345 | 0.0 | 4.8 | 0.00 | 0.00 | 0.00 | 46 | 1004.7 |
| 20260504211729 | 27 | 346 | 1.6 | 6.4 | 0.00 | 0.00 | 0.00 | 46 | 1004.5 |
| 20260504211225 | 27 | 41 | 0.0 | 3.2 | 0.00 | 0.00 | 0.00 | 46 | 1004.6 |
| 20260504210723 | 27 | 332 | 3.2 | 11.3 | 0.00 | 0.00 | 0.00 | 45 | 1004.6 |
| 20260504210220 | 28 | 334 | 1.6 | 6.4 | 0.00 | 0.00 | 0.00 | 46 | 1004.8 |
| 20260504205716 | 27 | 342 | 0.0 | 3.2 | 0.00 | 0.00 | 0.00 | 48 | 1004.8 |
| 20260504205208 | 28 | 83 | 3.2 | 14.5 | 0.00 | 0.00 | 0.00 | 47 | 1004.8 |
| 20260504204706 | 28 | 315 | 0.0 | 11.3 | 0.00 | 0.00 | 0.00 | 46 | 1004.7 |
| 20260504204205 | 28 | 346 | 0.0 | 1.6 | 0.00 | 0.00 | 0.00 | 51 | 1004.8 |
| 20260504203703 | 28 | 49 | 3.2 | 4.8 | 0.00 | 0.00 | 0.00 | 45 | 1005.1 |
| 20260504203200 | 28 | 344 | 0.0 | 3.2 | 0.00 | 0.00 | 0.00 | 47 | 1004.9 |
| 20260504202655 | 27 | 348 | 4.8 | 9.7 | 0.00 | 0.00 | 0.00 | 45 | 1005.2 |
| 20260504202152 | 27 | 52 | 3.2 | 6.4 | 0.00 | 0.00 | 0.00 | 45 | 1005.2 |
| 20260504201649 | 27 | 161 | 4.8 | 11.3 | 0.00 | 0.00 | 0.00 | 45 | 1005.3 |
| 20260504201147 | 27 | 155 | 1.6 | 6.4 | 0.00 | 0.00 | 0.00 | 47 | 1005.3 |
| 20260504200644 | 28 | 163 | 9.7 | 14.5 | 0.00 | 0.00 | 0.00 | 45 | 1005.5 |
| 20260504200140 | 28 | 45 | 3.2 | 3.2 | 0.00 | 0.00 | 0.00 | 47 | 1005.3 |
| 20260504195636 | 28 | 27 | 1.6 | 6.4 | 0.00 | 0.00 | 0.00 | 49 | 1005.6 |
| 20260504195132 | 28 | 266 | 0.0 | 3.2 | 0.00 | 0.00 | 0.00 | 45 | 1005.8 |
| 20260504194629 | 28 | 332 | 0.0 | 1.6 | 0.00 | 0.00 | 0.00 | 48 | 1005.6 |
| 20260504194125 | 28 | 212 | 0.0 | 3.2 | 0.00 | 0.00 | 0.00 | 49 | 1005.7 |
| 20260504193622 | 28 | 339 | 0.0 | 4.8 | 0.00 | 0.00 | 0.00 | 47 | 1005.6 |
| 20260504193120 | 28 | 349 | 0.0 | 0.0 | 0.00 | 0.00 | 0.00 | 47 | 1005.8 |
| 20260504192618 | 28 | 341 | 0.0 | 0.0 | 0.00 | 0.00 | 0.00 | 50 | 1005.7 |
| 20260504192116 | 27 | 330 | 0.0 | 0.0 | 0.00 | 0.00 | 0.00 | 46 | 1005.9 |
| 20260504191614 | 28 | 301 | 3.2 | 4.8 | 0.00 | 0.00 | 0.00 | 44 | 1005.9 |
| 20260504191110 | 27 | 9 | 3.2 | 4.8 | 0.00 | 0.00 | 0.00 | 50 | 1005.8 |
| 20260504190606 | 27 | 329 | 0.0 | 11.3 | 0.00 | 0.00 | 0.00 | 48 | 1005.8 |
| 20260504185559 | 27 | 79 | 1.6 | 6.4 | 0.00 | 0.00 | 0.00 | 49 | 1005.8 |
| 20260504185056 | 27 | 142 | 3.2 | 6.4 | 0.00 | 0.00 | 0.00 | 49 | 1006.0 |
| 20260504184551 | 27 | 116 | 6.4 | 12.9 | 0.00 | 0.00 | 0.00 | 47 | 1005.7 |
| 20260504184047 | 27 | 17 | 1.6 | 3.2 | 0.00 | 0.00 | 0.00 | 46 | 1006.0 |
| 20260504183544 | 27 | 17 | 1.6 | 4.8 | 0.00 | 0.00 | 0.00 | 48 | 1006.2 |
| 20260504183042 | 27 | 237 | 8.0 | 14.5 | 0.00 | 0.00 | 0.00 | 48 | 1005.8 |
| 20260504182539 | 27 | 339 | 1.6 | 4.8 | 0.00 | 0.00 | 0.00 | 48 | 1005.8 |
| 20260504182036 | 27 | 338 | 0.0 | 1.6 | 0.00 | 0.00 | 0.00 | 47 | 1005.9 |
| 20260504181533 | 27 | 108 | 4.8 | 11.3 | 0.00 | 0.00 | 0.00 | 46 | 1006.0 |
| 20260504181031 | 27 | 102 | 0.0 | 12.9 | 0.00 | 0.00 | 0.00 | 47 | 1005.9 |
| 20260504180530 | 27 | 18 | 3.2 | 6.4 | 0.00 | 0.00 | 0.00 | 46 | 1006.0 |
| 20260504180028 | 27 | 100 | 3.2 | 11.3 | 0.00 | 0.00 | 0.00 | 47 | 1005.8 |
| 20260504175525 | 27 | 351 | 6.4 | 14.5 | 0.00 | 0.00 | 0.00 | 46 | 1006.1 |
| 20260504175022 | 27 | 2 | 1.6 | 9.7 | 0.00 | 0.00 | 0.00 | 48 | 1006.1 |
| 20260504174520 | 27 | 1 | 1.6 | 11.3 | 0.00 | 0.00 | 0.00 | 49 | 1006.2 |
| 20260504174017 | 27 | 312 | 0.0 | 3.2 | 0.00 | 0.00 | 0.00 | 50 | 1006.1 |
| 20260504173514 | 27 | 145 | 3.2 | 9.7 | 0.00 | 0.00 | 0.00 | 47 | 1006.1 |
| 20260504173011 | 26 | 178 | 0.0 | 12.9 | 0.00 | 0.00 | 0.00 | 47 | 1006.3 |
| 20260504172507 | 26 | 142 | 1.6 | 6.4 | 0.00 | 0.00 | 0.00 | 47 | 1006.4 |
| 20260504172003 | 26 | 156 | 3.2 | 9.7 | 0.00 | 0.00 | 0.00 | 47 | 1006.3 |
| 20260504171500 | 26 | 120 | 4.8 | 6.4 | 0.00 | 0.00 | 0.00 | 48 | 1006.3 |
| 20260504170957 | 26 | 2 | 3.2 | 14.5 | 0.00 | 0.00 | 0.00 | 50 | 1006.6 |
| 20260504170453 | 26 | 35 | 3.2 | 11.3 | 0.00 | 0.00 | 0.00 | 48 | 1006.5 |
| 20260504160413 | 25 | 338 | 1.6 | 4.8 | 0.00 | 0.00 | 0.00 | 49 | 1007.0 |
| 20260504150837 | 23 | 143 | 8.0 | 9.7 | 0.00 | 0.00 | 0.00 | 49 | 1007.4 |
| 20260504150334 | 23 | 4 | 3.2 | 4.8 | 0.00 | 0.00 | 0.00 | 51 | 1007.4 |